Provo, UT

3:33 PM MST on November 11, 2019 (GMT -0700)
Provo Municipal

Weather History for KPVU - September, 2019

Change the Weather History Date:

Thursday, September 19, 2019

  Actual Average Record
Temperature  
Mean Temperature 64 °F -  
Max Temperature 80 °F 72 °F 90 °F (2016)
Min Temperature 50 °F 45 °F 34 °F (1988)
Growing Degree Days 14 (Base 50)    
Moisture  
Dew Point 37 °F    
Average Humidity 40    
Maximum Humidity 55    
Minimum Humidity 14    
Precipitation  
Precipitation 0.00 in - - ()
Sea Level Pressure  
Sea Level Pressure 29.71 in    
Wind  
Wind Speed 8 mph (WNW)    
Max Wind Speed 25 mph    
Max Gust Speed 32 mph    
Visibility 10 miles    
Events      
Averages and records for this station are not official NWS values.
T = Trace of Precipitation, MM = Missing Value Source: NWS Daily Summary

Daily Weather History Graph

Daily Weather History Graph

Search for Another Location

Airport or City:

Astronomy

Sep. 19, 2019 Rise Set
Actual Time 7:11 AM MDT 7:29 PM MDT
Civil Twilight 6:44 AM MDT 7:56 PM MDT
Nautical Twilight 6:12 AM MDT 8:28 PM MDT
Astronomical Twilight 5:39 AM MDT 9:00 PM MDT
Moon 10:40 PM MDT (9/19) 12:19 PM MDT (9/19)
Length of Visible Light 13h 12m
Length of Day
12h 17m
Waning Gibbous, 74% of the Moon is Illuminated
Sep 19
Waning Gibbous
Sep 21
Last Quarter
Sep 28
New
Oct 5
First Quarter
Oct 13
Full

Hourly Weather History & Observations

Time (MDT) Temp. Dew Point Humidity Pressure Visibility Wind Dir Wind Speed Gust Speed Precip Events Conditions
12:56 AM 55.9 °F 37.0 °F 49% 29.76 in 10.0 mi Calm Calm - N/A   Clear
1:56 AM 57.0 °F 36.0 °F 45% 29.75 in 7.0 mi ESE 5.8 mph - N/A   Clear
2:56 AM 53.1 °F 34.0 °F 48% 29.75 in 10.0 mi ESE 5.8 mph - N/A   Clear
3:56 AM 51.1 °F 34.0 °F 52% 29.75 in 10.0 mi ESE 5.8 mph - N/A   Clear
4:56 AM 51.1 °F 35.1 °F 54% 29.75 in 10.0 mi Variable 3.5 mph - N/A   Clear
5:56 AM 50.0 °F 34.0 °F 54% 29.74 in 10.0 mi Calm Calm - N/A   Clear
6:56 AM 50.0 °F 33.1 °F 52% 29.75 in 10.0 mi SE 9.2 mph - N/A   Clear
7:56 AM 50.0 °F 34.0 °F 54% 29.78 in 10.0 mi SE 6.9 mph - N/A   Clear
8:56 AM 60.1 °F 33.1 °F 36% 29.75 in 8.0 mi ESE 6.9 mph - N/A   Clear
9:56 AM 68.0 °F 35.1 °F 30% 29.73 in 10.0 mi ESE 8.1 mph - N/A   Clear
10:56 AM 75.0 °F 37.9 °F 26% 29.70 in 10.0 mi SW 9.2 mph - N/A   Clear
11:56 AM 78.1 °F 32.0 °F 19% 29.68 in 10.0 mi Variable 6.9 mph - N/A   Clear
12:56 PM 77.0 °F 28.0 °F 17% 29.67 in 10.0 mi NW 8.1 mph - N/A   Clear
1:56 PM 79.0 °F 25.0 °F 14% 29.62 in 10.0 mi Variable 4.6 mph - N/A   Partly Cloudy
2:22 PM 78.8 °F 42.8 °F 28% 29.76 in 10.0 mi WSW 10.4 mph - N/A   Partly Cloudy
2:56 PM 79.0 °F 42.1 °F 27% 29.62 in 10.0 mi WSW 12.7 mph - N/A   Partly Cloudy
3:56 PM 78.1 °F 45.0 °F 31% 29.61 in 10.0 mi WSW 13.8 mph 21.9 mph N/A   Scattered Clouds
4:56 PM 78.1 °F 46.9 °F 33% 29.60 in 10.0 mi WSW 15.0 mph - N/A   Scattered Clouds
5:45 PM 71.6 °F 41.0 °F 33% 29.75 in 10.0 mi NNW 25.3 mph 32.2 mph N/A   Mostly Cloudy
5:56 PM 70.0 °F 44.1 °F 39% 29.65 in 10.0 mi NW 24.2 mph - N/A   Mostly Cloudy
6:56 PM 66.0 °F 42.1 °F 42% 29.69 in 10.0 mi NW 21.9 mph - N/A   Scattered Clouds
7:56 PM 63.0 °F 41.0 °F 45% 29.73 in 10.0 mi NW 20.7 mph 27.6 mph N/A   Scattered Clouds
8:56 PM 61.0 °F 39.9 °F 46% 29.74 in 10.0 mi NNW 17.3 mph 24.2 mph N/A   Clear
9:56 PM 59.0 °F 41.0 °F 51% 29.74 in 10.0 mi NW 23.0 mph - N/A   Clear
10:56 PM 59.0 °F 39.9 °F 49% 29.73 in 10.0 mi NW 24.2 mph 28.8 mph N/A   Clear
11:56 PM 55.9 °F 39.9 °F 55% 29.73 in 10.0 mi North 6.9 mph - N/A   Clear